Site-Specific Forecast Table for Stillwater
DATE TIME TAIR TDEW RELH WDIR WSPD 1-hr PRECIP SRAD CLOUD
Mon Jul 24, 2017 10:00 am CDT 85°F 74°F 69% NE 6 mph 0.00 in. 621 W/m2 0%
Mon Jul 24, 2017 11:00 am CDT 88°F 73°F 62% ENE 5 mph 0.00 in. 733 W/m2 0%
Mon Jul 24, 2017 12:00 pm CDT 90°F 72°F 55% E 6 mph 0.00 in. 846 W/m2 0%
Mon Jul 24, 2017 1:00 pm CDT 93°F 71°F 49% E 8 mph 0.00 in. 959 W/m2 0%
Mon Jul 24, 2017 2:00 pm CDT 94°F 71°F 47% ESE 8 mph 0.00 in. 904 W/m2 0%
Mon Jul 24, 2017 3:00 pm CDT 95°F 70°F 45% ESE 9 mph 0.00 in. 848 W/m2 0%
Mon Jul 24, 2017 4:00 pm CDT 96°F 70°F 43% ESE 9 mph 0.00 in. 793 W/m2 0%
Mon Jul 24, 2017 5:00 pm CDT 95°F 70°F 45% ESE 9 mph 0.00 in. 609 W/m2 0%
Mon Jul 24, 2017 6:00 pm CDT 94°F 70°F 47% SE 10 mph 0.00 in. 426 W/m2 0%
Mon Jul 24, 2017 7:00 pm CDT 92°F 70°F 49% SE 10 mph 0.00 in. 242 W/m2 0%
Mon Jul 24, 2017 8:00 pm CDT 88°F 72°F 59% SE 9 mph 0.00 in. 161 W/m2 0%
Mon Jul 24, 2017 9:00 pm CDT 84°F 73°F 69% SE 8 mph 0.00 in. 0 W/m2 0%
Mon Jul 24, 2017 10:00 pm CDT 80°F 73°F 80% SSE 7 mph 0.00 in. 0 W/m2 0%
Mon Jul 24, 2017 11:00 pm CDT 78°F 73°F 84% SSE 7 mph 0.00 in. 0 W/m2 0%
Tue Jul 25, 2017 12:00 am CDT 77°F 73°F 89% SSE 6 mph 0.00 in. 0 W/m2 0%
Tue Jul 25, 2017 1:00 am CDT 76°F 74°F 93% SSE 6 mph 0.00 in. 0 W/m2 0%
Tue Jul 25, 2017 2:00 am CDT 75°F 73°F 94% SSE 6 mph 0.00 in. 0 W/m2 0%
Tue Jul 25, 2017 3:00 am CDT 74°F 72°F 95% SSE 6 mph 0.00 in. 0 W/m2 0%
Tue Jul 25, 2017 4:00 am CDT 72°F 71°F 96% SSE 5 mph 0.00 in. 0 W/m2 0%
Tue Jul 25, 2017 5:00 am CDT 72°F 71°F 97% SSE 5 mph 0.00 in. 0 W/m2 2%
DATE TIME TAIR TDEW RELH WDIR WSPD 1-hr PRECIP SRAD CLOUD
Tue Jul 25, 2017 6:00 am CDT 71°F 71°F 98% SSE 5 mph 0.00 in. 0 W/m2 5%
Tue Jul 25, 2017 7:00 am CDT 71°F 70°F 99% SSE 6 mph 0.00 in. 43 W/m2 7%
Tue Jul 25, 2017 8:00 am CDT 76°F 72°F 86% SSE 7 mph 0.00 in. 234 W/m2 5%
Tue Jul 25, 2017 9:00 am CDT 82°F 72°F 73% SSE 8 mph 0.00 in. 425 W/m2 2%
Tue Jul 25, 2017 10:00 am CDT 87°F 72°F 60% SSE 9 mph 0.00 in. 616 W/m2 0%
Tue Jul 25, 2017 11:00 am CDT 90°F 72°F 56% SSE 10 mph 0.00 in. 731 W/m2 0%
Tue Jul 25, 2017 12:00 pm CDT 92°F 72°F 51% SSE 10 mph 0.00 in. 845 W/m2 0%
Tue Jul 25, 2017 1:00 pm CDT 95°F 71°F 47% SSE 11 mph 0.00 in. 960 W/m2 0%
Tue Jul 25, 2017 2:00 pm CDT 96°F 71°F 44% SSE 11 mph 0.00 in. 904 W/m2 0%
Tue Jul 25, 2017 3:00 pm CDT 97°F 70°F 42% SSE 11 mph 0.00 in. 849 W/m2 0%
Tue Jul 25, 2017 4:00 pm CDT 98°F 69°F 39% SSE 11 mph 0.00 in. 794 W/m2 0%
Tue Jul 25, 2017 5:00 pm CDT 97°F 69°F 41% SSE 12 mph 0.00 in. 607 W/m2 3%
Tue Jul 25, 2017 6:00 pm CDT 96°F 69°F 42% SSE 13 mph 0.00 in. 421 W/m2 7%
Tue Jul 25, 2017 7:00 pm CDT 95°F 69°F 43% SSE 13 mph 0.00 in. 234 W/m2 10%
Tue Jul 25, 2017 8:00 pm CDT 92°F 70°F 49% SE 13 mph 0.00 in. 156 W/m2 7%
Tue Jul 25, 2017 9:00 pm CDT 89°F 71°F 55% SE 12 mph 0.00 in. 0 W/m2 3%
Tue Jul 25, 2017 10:00 pm CDT 86°F 71°F 62% SE 12 mph 0.00 in. 0 W/m2 0%
Tue Jul 25, 2017 11:00 pm CDT 84°F 72°F 66% SE 11 mph 0.00 in. 0 W/m2 0%
Wed Jul 26, 2017 12:00 am CDT 83°F 72°F 70% SE 11 mph 0.00 in. 0 W/m2 0%
Wed Jul 26, 2017 1:00 am CDT 81°F 72°F 75% SSE 10 mph 0.00 in. 0 W/m2 1%
DATE TIME TAIR TDEW RELH WDIR WSPD 1-hr PRECIP SRAD CLOUD
Wed Jul 26, 2017 2:00 am CDT 80°F 72°F 76% SSE 11 mph 0.00 in. 0 W/m2 1%
Wed Jul 26, 2017 3:00 am CDT 79°F 72°F 78% SSE 11 mph 0.00 in. 0 W/m2 0%
Wed Jul 26, 2017 4:00 am CDT 78°F 71°F 80% SSE 11 mph 0.00 in. 0 W/m2 0%
Wed Jul 26, 2017 5:00 am CDT 78°F 70°F 78% SSE 11 mph 0.00 in. 0 W/m2 0%
Wed Jul 26, 2017 6:00 am CDT 77°F 69°F 76% S 11 mph 0.00 in. 0 W/m2 1%
Wed Jul 26, 2017 7:00 am CDT 77°F 68°F 74% S 11 mph 0.00 in. 43 W/m2 1%
Wed Jul 26, 2017 8:00 am CDT 81°F 69°F 66% S 12 mph 0.00 in. 216 W/m2 24%
Wed Jul 26, 2017 9:00 am CDT 86°F 70°F 59% SSW 14 mph 0.00 in. 388 W/m2 46%
Wed Jul 26, 2017 10:00 am CDT 90°F 70°F 51% SSW 16 mph 0.00 in. 561 W/m2 69%
Wed Jul 26, 2017 11:00 am CDT 93°F 70°F 46% SSW 16 mph 0.00 in. 621 W/m2 72%
Wed Jul 26, 2017 12:00 pm CDT 96°F 69°F 42% SSW 17 mph 0.00 in. 680 W/m2 76%
Wed Jul 26, 2017 1:00 pm CDT 99°F 68°F 38% SSW 17 mph 0.00 in. 740 W/m2 80%
Wed Jul 26, 2017 2:00 pm CDT 100°F 68°F 36% SSW 18 mph 0.00 in. 748 W/m2 64%
Wed Jul 26, 2017 3:00 pm CDT 100°F 67°F 34% SSW 19 mph 0.00 in. 757 W/m2 49%
Wed Jul 26, 2017 4:00 pm CDT 101°F 66°F 32% SSW 20 mph 0.00 in. 766 W/m2 33%
Wed Jul 26, 2017 5:00 pm CDT 100°F 66°F 33% SSW 19 mph 0.00 in. 587 W/m2 24%
Wed Jul 26, 2017 6:00 pm CDT 100°F 67°F 35% SSW 18 mph 0.00 in. 408 W/m2 15%
Wed Jul 26, 2017 7:00 pm CDT 98°F 67°F 36% SSW 17 mph 0.00 in. 229 W/m2 6%
Wed Jul 26, 2017 8:00 pm CDT 95°F 67°F 41% SSW 15 mph 0.00 in. 152 W/m2 4%
Wed Jul 26, 2017 9:00 pm CDT 92°F 68°F 46% S 12 mph 0.00 in. 0 W/m2 3%
DATE TIME TAIR TDEW RELH WDIR WSPD 1-hr PRECIP SRAD CLOUD
Wed Jul 26, 2017 10:00 pm CDT 88°F 68°F 50% S 10 mph 0.00 in. 0 W/m2 2%
Wed Jul 26, 2017 11:00 pm CDT 87°F 68°F 54% S 10 mph 0.00 in. 0 W/m2 6%
Thu Jul 27, 2017 12:00 am CDT 85°F 68°F 58% S 10 mph 0.00 in. 0 W/m2 10%
Thu Jul 27, 2017 1:00 am CDT 83°F 68°F 61% S 10 mph 0.00 in. 0 W/m2 14%
Thu Jul 27, 2017 2:00 am CDT 81°F 69°F 66% SSW 7 mph 0.00 in. 0 W/m2 12%
Thu Jul 27, 2017 3:00 am CDT 79°F 69°F 72% SW 5 mph 0.00 in. 0 W/m2 11%
Thu Jul 27, 2017 4:00 am CDT 78°F 70°F 77% W 5 mph 0.00 in. 0 W/m2 9%
Thu Jul 27, 2017 5:00 am CDT 77°F 71°F 81% NNW 6 mph 0.00 in. 0 W/m2 31%
Thu Jul 27, 2017 6:00 am CDT 77°F 72°F 86% N 10 mph 0.00 in. 0 W/m2 52%
Thu Jul 27, 2017 7:00 am CDT 77°F 74°F 91% N 15 mph 0.00 in. 19 W/m2 74%
Thu Jul 27, 2017 8:00 am CDT 78°F 73°F 84% N 15 mph 0.00 in. 193 W/m2 60%
Thu Jul 27, 2017 9:00 am CDT 80°F 72°F 78% N 15 mph 0.00 in. 368 W/m2 46%
Thu Jul 27, 2017 10:00 am CDT 81°F 71°F 71% N 16 mph 0.00 in. 542 W/m2 33%
Thu Jul 27, 2017 11:00 am CDT 83°F 71°F 68% N 16 mph 0.00 in. 671 W/m2 27%
Thu Jul 27, 2017 12:00 pm CDT 85°F 71°F 65% N 15 mph 0.00 in. 800 W/m2 21%
Thu Jul 27, 2017 1:00 pm CDT 86°F 71°F 61% N 15 mph 0.00 in. 929 W/m2 15%